Location: ??????
(41.3164°N, 22.6615°E)
Time: 13:22:05
(UTC+00:00)

STARS - Visible Passes

Search period start: 28 June 2022 00:00
Search period end: 08 July 2022 00:00
Orbit: 622 x 636 km, 98.2° (Epoch: 28 June)

Date Brightness Start Highest point End Pass type
(mag) Time Alt. Az. Time Alt. Az. Time Alt. Az.
28 Jun ? 20:03:34 10° ENE 20:05:53 15° E 20:05:53 15° E visible
28 Jun ? 21:38:22 10° N 21:42:36 49° WNW 21:43:15 45° W visible
29 Jun ? 20:22:46 10° NE 20:26:12 24° E 20:26:12 24° E visible
29 Jun ? 21:58:45 10° N 22:02:35 30° WNW 22:03:33 27° W visible
30 Jun ? 20:42:25 10° NNE 20:46:30 39° E 20:46:30 39° E visible
30 Jun ? 22:19:23 10° NNW 22:22:31 20° WNW 22:23:51 17° W visible
01 Jul ? 21:02:19 10° NNE 21:06:41 66° ESE 21:06:48 65° ESE visible
01 Jul ? 22:40:32 10° NW 22:42:22 13° WNW 22:44:09 10° W visible
02 Jul ? 21:22:23 10° N 21:26:46 75° WNW 21:27:05 70° WSW visible
03 Jul ? 20:07:34 10° NE 20:10:02 16° E 20:10:02 16° E visible
03 Jul ? 21:42:37 10° N 21:46:47 45° WNW 21:47:23 42° W visible
04 Jul ? 20:26:53 10° NE 20:30:19 26° E 20:30:19 26° E visible
04 Jul ? 22:03:02 10° N 22:06:45 28° WNW 22:07:40 26° W visible
05 Jul ? 20:46:34 10° NNE 20:50:36 42° E 20:50:36 42° E visible
05 Jul ? 22:23:43 10° NNW 22:26:39 18° WNW 22:27:57 16° W visible
06 Jul ? 21:06:29 10° NNE 21:10:52 72° ESE 21:10:53 72° ESE visible
06 Jul ? 22:45:04 10° NW 22:46:30 11° WNW 22:47:56 10° W visible
07 Jul ? 19:53:22 10° ENE 19:53:48 10° E 19:53:48 10° E visible
07 Jul ? 21:26:34 10° N 21:30:55 68° WNW 21:31:09 67° W visible
